Time,TemperatureF,DewpointF,PressureIn,WindDirection,WindDirectionDegrees,WindSpeedMPH,WindSpeedGustMPH,Humidity,HourlyPrecipIn,Conditions,Clouds,dailyrainin,SoftwareType,DateUTC
2013-08-06 00:01:00,57.0,53.0,29.98,West,273,0.0,-999.0,88,-99.99,,,-99.99,,2013-08-06 07:01:00,
2013-08-06 00:11:00,56.0,52.0,29.98,West,273,0.0,-999.0,87,-99.99,,,-99.99,,2013-08-06 07:11:00,
2013-08-06 00:22:00,56.0,52.0,29.98,West,273,0.0,-999.0,87,-99.99,,,-99.99,,2013-08-06 07:22:00,
2013-08-06 00:32:00,56.0,52.0,29.98,West,273,0.0,-999.0,88,-99.99,,,-99.99,,2013-08-06 07:32:00,
2013-08-06 00:43:00,55.0,52.0,29.98,West,273,0.0,-999.0,88,-99.99,,,-99.99,,2013-08-06 07:43:00,
2013-08-06 00:53:00,55.0,52.0,29.98,West,273,0.0,-999.0,88,-99.99,,,-99.99,,2013-08-06 07:53:00,
2013-08-06 01:01:00,55.0,52.0,29.98,West,273,0.0,-999.0,88,-99.99,,,-99.99,,2013-08-06 08:01:00,
2013-08-06 01:11:00,55.0,52.0,29.98,West,273,0.0,-999.0,88,-99.99,,,-99.99,,2013-08-06 08:11:00,
2013-08-06 01:21:00,55.0,52.0,29.98,West,273,0.0,-999.0,88,-99.99,,,-99.99,,2013-08-06 08:21:00,
2013-08-06 01:32:00,54.0,51.0,29.99,West,273,0.0,-999.0,88,-99.99,,,-99.99,,2013-08-06 08:32:00,
2013-08-06 01:43:00,55.0,52.0,30.00,West,273,0.0,-999.0,89,-99.99,,,-99.99,,2013-08-06 08:43:00,
2013-08-06 01:52:00,55.0,52.0,30.00,West,273,0.0,-999.0,89,-99.99,,,-99.99,,2013-08-06 08:52:00,
2013-08-06 02:01:00,55.0,52.0,29.99,West,273,0.0,-999.0,89,-99.99,,,-99.99,,2013-08-06 09:01:00,
2013-08-06 02:11:00,56.0,53.0,29.99,West,273,0.0,-999.0,90,-99.99,,,-99.99,,2013-08-06 09:11:00,
2013-08-06 02:22:00,56.0,53.0,29.99,West,273,0.0,-999.0,90,-99.99,,,-99.99,,2013-08-06 09:22:00,
2013-08-06 02:32:00,57.0,54.0,29.99,West,273,0.0,-999.0,91,-99.99,,,-99.99,,2013-08-06 09:32:00,
2013-08-06 02:43:00,57.0,54.0,30.00,West,273,0.0,-999.0,91,-99.99,,,-99.99,,2013-08-06 09:43:00,
2013-08-06 02:52:00,57.0,54.0,30.00,West,273,0.0,-999.0,91,-99.99,,,-99.99,,2013-08-06 09:52:00,
2013-08-06 03:01:00,57.0,55.0,30.00,West,273,0.0,-999.0,92,-99.99,,,-99.99,,2013-08-06 10:01:00,
2013-08-06 03:11:00,57.0,55.0,29.99,West,273,0.0,-999.0,92,-99.99,,,-99.99,,2013-08-06 10:11:00,
2013-08-06 03:32:00,57.0,55.0,29.99,West,273,0.0,-999.0,92,-99.99,,,-99.99,,2013-08-06 10:32:00,
2013-08-06 03:42:00,57.0,55.0,29.99,West,273,0.0,-999.0,92,-99.99,,,-99.99,,2013-08-06 10:42:00,
2013-08-06 03:52:00,57.0,55.0,29.99,West,273,0.0,-999.0,92,-99.99,,,-99.99,,2013-08-06 10:52:00,
2013-08-06 04:01:00,57.0,55.0,29.99,West,273,0.0,-999.0,92,-99.99,,,-99.99,,2013-08-06 11:01:00,
2013-08-06 04:11:00,57.0,55.0,29.99,West,273,0.0,-999.0,93,-99.99,,,-99.99,,2013-08-06 11:11:00,
2013-08-06 04:32:00,57.0,55.0,30.00,West,273,0.0,-999.0,93,-99.99,,,-99.99,,2013-08-06 11:32:00,
2013-08-06 04:43:00,57.0,55.0,29.99,West,273,0.0,-999.0,93,-99.99,,,-99.99,,2013-08-06 11:43:00,
2013-08-06 04:53:00,57.0,55.0,29.99,West,273,0.0,-999.0,93,-99.99,,,-99.99,,2013-08-06 11:53:00,
2013-08-06 05:01:00,56.0,54.0,30.00,West,273,0.0,-999.0,93,-99.99,,,-99.99,,2013-08-06 12:01:00,
2013-08-06 05:11:00,56.0,54.0,30.00,West,273,0.0,-999.0,93,-99.99,,,-99.99,,2013-08-06 12:11:00,
2013-08-06 05:21:00,56.0,54.0,30.00,West,273,0.0,-999.0,93,-99.99,,,-99.99,,2013-08-06 12:21:00,
2013-08-06 05:31:00,56.0,54.0,29.99,West,273,0.0,-999.0,93,-99.99,,,-99.99,,2013-08-06 12:31:00,
2013-08-06 05:43:00,56.0,54.0,30.00,West,273,0.0,-999.0,93,-99.99,,,-99.99,,2013-08-06 12:43:00,
2013-08-06 05:52:00,56.0,54.0,29.99,West,273,0.0,-999.0,93,-99.99,,,-99.99,,2013-08-06 12:52:00,
2013-08-06 06:01:00,56.0,54.0,29.99,West,273,0.0,-999.0,93,-99.99,,,-99.99,,2013-08-06 13:01:00,
2013-08-06 06:11:00,56.0,54.0,30.00,West,273,0.0,-999.0,93,-99.99,,,-99.99,,2013-08-06 13:11:00,
2013-08-06 06:22:00,56.0,54.0,30.00,West,273,0.0,-999.0,93,-99.99,,,-99.99,,2013-08-06 13:22:00,
2013-08-06 06:32:00,55.0,53.0,30.01,West,273,0.0,-999.0,93,-99.99,,,-99.99,,2013-08-06 13:32:00,
2013-08-06 06:52:00,55.0,53.0,30.01,West,273,0.0,-999.0,93,-99.99,,,-99.99,,2013-08-06 13:52:00,
2013-08-06 07:01:00,55.0,53.0,30.01,West,273,0.0,-999.0,93,-99.99,,,-99.99,,2013-08-06 14:01:00,
2013-08-06 07:11:00,55.0,53.0,30.02,West,273,0.0,-999.0,93,-99.99,,,-99.99,,2013-08-06 14:11:00,
2013-08-06 07:21:00,55.0,53.0,30.02,West,273,0.0,-999.0,93,-99.99,,,-99.99,,2013-08-06 14:21:00,
2013-08-06 07:32:00,55.0,53.0,30.02,West,273,0.0,-999.0,93,-99.99,,,-99.99,,2013-08-06 14:32:00,
2013-08-06 07:42:00,54.0,52.0,30.03,West,273,0.0,-999.0,93,-99.99,,,-99.99,,2013-08-06 14:42:00,
2013-08-06 07:53:00,55.0,53.0,30.03,West,273,0.0,-999.0,93,-99.99,,,-99.99,,2013-08-06 14:53:00,
2013-08-06 08:02:00,55.0,53.0,30.03,West,273,0.0,-999.0,93,-99.99,,,-99.99,,2013-08-06 15:02:00,
2013-08-06 08:11:00,55.0,53.0,30.03,West,273,0.0,-999.0,93,-99.99,,,-99.99,,2013-08-06 15:11:00,
2013-08-06 08:33:00,56.0,54.0,30.04,West,273,0.0,-999.0,93,-99.99,,,-99.99,,2013-08-06 15:33:00,
2013-08-06 08:43:00,56.0,54.0,30.04,West,273,1.0,-999.0,93,-99.99,,,-99.99,,2013-08-06 15:43:00,
2013-08-06 08:52:00,57.0,55.0,30.04,West,273,0.0,-999.0,93,-99.99,,,-99.99,,2013-08-06 15:52:00,
2013-08-06 09:01:00,57.0,55.0,30.04,West,273,0.0,-999.0,93,-99.99,,,-99.99,,2013-08-06 16:01:00,
2013-08-06 09:11:00,58.0,56.0,30.05,West,273,0.0,-999.0,93,-99.99,,,-99.99,,2013-08-06 16:11:00,
2013-08-06 09:32:00,58.0,56.0,30.05,West,273,0.0,-999.0,92,-99.99,,,-99.99,,2013-08-06 16:32:00,
2013-08-06 09:42:00,59.0,56.0,30.06,West,273,0.0,-999.0,91,-99.99,,,-99.99,,2013-08-06 16:42:00,
2013-08-06 09:52:00,59.0,56.0,30.06,West,273,0.0,-999.0,91,-99.99,,,-99.99,,2013-08-06 16:52:00,
2013-08-06 10:01:00,60.0,57.0,30.06,West,273,1.0,-999.0,89,-99.99,,,-99.99,,2013-08-06 17:01:00,
2013-08-06 10:11:00,61.0,57.0,30.06,WNW,286,1.0,-999.0,86,-99.99,,,-99.99,,2013-08-06 17:11:00,
2013-08-06 10:21:00,61.0,57.0,30.06,WNW,286,1.0,-999.0,86,-99.99,,,-99.99,,2013-08-06 17:21:00,
2013-08-06 10:32:00,62.0,56.0,30.07,WSW,252,3.0,-999.0,82,-99.99,,,-99.99,,2013-08-06 17:32:00,
2013-08-06 10:43:00,63.0,57.0,30.06,West,272,2.0,-999.0,80,-99.99,,,-99.99,,2013-08-06 17:43:00,
2013-08-06 10:52:00,63.0,57.0,30.06,West,272,2.0,-999.0,80,-99.99,,,-99.99,,2013-08-06 17:52:00,
2013-08-06 11:01:00,64.0,57.0,30.06,NW,304,3.0,-999.0,78,-99.99,,,-99.99,,2013-08-06 18:01:00,
2013-08-06 11:11:00,66.0,57.0,30.05,NW,309,1.0,-999.0,74,-99.99,,,-99.99,,2013-08-06 18:11:00,
2013-08-06 11:21:00,66.0,57.0,30.05,NW,309,1.0,-999.0,74,-99.99,,,-99.99,,2013-08-06 18:21:00,
2013-08-06 11:32:00,68.0,58.0,30.05,West,259,1.0,-999.0,71,-99.99,,,-99.99,,2013-08-06 18:32:00,
2013-08-06 11:43:00,68.0,58.0,30.05,West,259,1.0,-999.0,71,-99.99,,,-99.99,,2013-08-06 18:43:00,
2013-08-06 11:52:00,68.0,58.0,30.05,West,259,1.0,-999.0,71,-99.99,,,-99.99,,2013-08-06 18:52:00,
2013-08-06 12:01:00,70.0,57.0,30.04,West,262,2.0,-999.0,63,-99.99,,,-99.99,,2013-08-06 19:01:00,
2013-08-06 12:11:00,71.0,57.0,30.04,West,261,2.0,-999.0,62,-99.99,,,-99.99,,2013-08-06 19:11:00,
2013-08-06 12:32:00,73.0,58.0,30.04,West,264,3.0,-999.0,60,-99.99,,,-99.99,,2013-08-06 19:32:00,
2013-08-06 12:42:00,73.0,58.0,30.04,West,264,3.0,-999.0,60,-99.99,,,-99.99,,2013-08-06 19:42:00,
2013-08-06 13:01:00,73.0,58.0,30.04,West,271,4.0,-999.0,60,-99.99,,,-99.99,,2013-08-06 20:01:00,
2013-08-06 13:22:00,73.0,58.0,30.03,NW,317,4.0,-999.0,60,-99.99,,,-99.99,,2013-08-06 20:22:00,
2013-08-06 13:32:00,73.0,58.0,30.03,NW,322,5.0,-999.0,60,-99.99,,,-99.99,,2013-08-06 20:32:00,
2013-08-06 13:43:00,73.0,58.0,30.03,WSW,254,4.0,-999.0,60,-99.99,,,-99.99,,2013-08-06 20:43:00,
2013-08-06 14:01:00,74.0,59.0,30.03,WNW,292,4.0,-999.0,59,-99.99,,,-99.99,,2013-08-06 21:01:00,
2013-08-06 14:11:00,75.0,59.0,30.03,WSW,246,4.0,-999.0,57,-99.99,,,-99.99,,2013-08-06 21:11:00,
2013-08-06 14:22:00,75.0,59.0,30.03,WSW,246,4.0,-999.0,57,-99.99,,,-99.99,,2013-08-06 21:22:00,
2013-08-06 14:32:00,75.0,58.0,30.02,WNW,288,5.0,-999.0,56,-99.99,,,-99.99,,2013-08-06 21:32:00,
2013-08-06 14:43:00,75.0,58.0,30.02,SW,232,4.0,-999.0,56,-99.99,,,-99.99,,2013-08-06 21:43:00,
2013-08-06 15:01:00,76.0,59.0,30.02,NW,309,4.0,-999.0,55,-99.99,,,-99.99,,2013-08-06 22:01:00,
2013-08-06 15:11:00,76.0,59.0,30.02,NW,309,4.0,-999.0,55,-99.99,,,-99.99,,2013-08-06 22:11:00,
2013-08-06 15:32:00,75.0,58.0,30.02,West,268,4.0,-999.0,56,-99.99,,,-99.99,,2013-08-06 22:32:00,
2013-08-06 15:43:00,74.0,58.0,30.02,West,278,5.0,-999.0,58,-99.99,,,-99.99,,2013-08-06 22:43:00,
2013-08-06 16:01:00,73.0,58.0,30.02,West,265,5.0,-999.0,59,-99.99,,,-99.99,,2013-08-06 23:01:00,
2013-08-06 16:11:00,72.0,58.0,30.02,WSW,256,4.0,-999.0,61,-99.99,,,-99.99,,2013-08-06 23:11:00,
2013-08-06 16:32:00,71.0,58.0,30.02,West,266,4.0,-999.0,64,-99.99,,,-99.99,,2013-08-06 23:32:00,
2013-08-06 16:42:00,71.0,58.0,30.01,SW,229,4.0,-999.0,64,-99.99,,,-99.99,,2013-08-06 23:42:00,
2013-08-06 16:52:00,71.0,58.0,30.01,West,271,4.0,-999.0,63,-99.99,,,-99.99,,2013-08-06 23:52:00,
2013-08-06 17:01:00,71.0,58.0,30.01,West,271,4.0,-999.0,63,-99.99,,,-99.99,,2013-08-07 00:01:00,
2013-08-06 17:11:00,71.0,58.0,30.01,West,279,3.0,-999.0,64,-99.99,,,-99.99,,2013-08-07 00:11:00,
2013-08-06 17:21:00,71.0,58.0,30.01,West,276,3.0,-999.0,64,-99.99,,,-99.99,,2013-08-07 00:21:00,
2013-08-06 17:32:00,71.0,58.0,30.01,West,276,3.0,-999.0,64,-99.99,,,-99.99,,2013-08-07 00:32:00,
2013-08-06 17:43:00,70.0,58.0,30.01,WNW,291,3.0,-999.0,65,-99.99,,,-99.99,,2013-08-07 00:43:00,
2013-08-06 18:01:00,71.0,58.0,30.01,WSW,251,2.0,-999.0,64,-99.99,,,-99.99,,2013-08-07 01:01:00,
2013-08-06 18:11:00,70.0,57.0,30.01,West,279,2.0,-999.0,64,-99.99,,,-99.99,,2013-08-07 01:11:00,
2013-08-06 18:21:00,70.0,57.0,30.01,West,279,2.0,-999.0,64,-99.99,,,-99.99,,2013-08-07 01:21:00,
2013-08-06 18:32:00,70.0,58.0,30.01,West,280,3.0,-999.0,66,-99.99,,,-99.99,,2013-08-07 01:32:00,
2013-08-06 18:43:00,69.0,57.0,30.01,West,261,1.0,-999.0,66,-99.99,,,-99.99,,2013-08-07 01:43:00,
2013-08-06 19:02:00,69.0,58.0,30.00,West,267,1.0,-999.0,67,-99.99,,,-99.99,,2013-08-07 02:02:00,
2013-08-06 19:11:00,69.0,58.0,30.01,West,267,0.0,-999.0,67,-99.99,,,-99.99,,2013-08-07 02:11:00,
2013-08-06 19:33:00,69.0,58.0,30.01,West,267,0.0,-999.0,69,-99.99,,,-99.99,,2013-08-07 02:33:00,
2013-08-06 19:43:00,68.0,58.0,30.01,West,267,0.0,-999.0,71,-99.99,,,-99.99,,2013-08-07 02:43:00,
2013-08-06 19:53:00,67.0,58.0,30.01,West,265,2.0,-999.0,72,-99.99,,,-99.99,,2013-08-07 02:53:00,
2013-08-06 20:01:00,67.0,58.0,30.01,West,265,2.0,-999.0,72,-99.99,,,-99.99,,2013-08-07 03:01:00,
2013-08-06 20:11:00,65.0,57.0,30.02,West,276,3.0,-999.0,75,-99.99,,,-99.99,,2013-08-07 03:11:00,
2013-08-06 20:32:00,63.0,56.0,30.03,West,279,3.0,-999.0,79,-99.99,,,-99.99,,2013-08-07 03:32:00,
2013-08-06 20:43:00,62.0,56.0,30.02,West,278,2.0,-999.0,81,-99.99,,,-99.99,,2013-08-07 03:43:00,
2013-08-06 20:52:00,62.0,56.0,30.02,West,278,2.0,-999.0,81,-99.99,,,-99.99,,2013-08-07 03:52:00,
2013-08-06 21:01:00,61.0,56.0,30.03,West,278,2.0,-999.0,83,-99.99,,,-99.99,,2013-08-07 04:01:00,
2013-08-06 21:11:00,60.0,55.0,30.03,West,278,0.0,-999.0,84,-99.99,,,-99.99,,2013-08-07 04:11:00,
2013-08-06 21:21:00,60.0,55.0,30.03,West,278,0.0,-999.0,84,-99.99,,,-99.99,,2013-08-07 04:21:00,
2013-08-06 21:33:00,60.0,55.0,30.03,West,278,0.0,-999.0,84,-99.99,,,-99.99,,2013-08-07 04:33:00,
2013-08-06 21:42:00,60.0,56.0,30.03,West,278,0.0,-999.0,86,-99.99,,,-99.99,,2013-08-07 04:42:00,
2013-08-06 21:52:00,59.0,54.0,30.03,West,277,0.0,-999.0,85,-99.99,,,-99.99,,2013-08-07 04:52:00,
2013-08-06 22:02:00,59.0,54.0,30.03,West,277,0.0,-999.0,85,-99.99,,,-99.99,,2013-08-07 05:02:00,
2013-08-06 22:11:00,59.0,54.0,30.03,West,278,0.0,-999.0,85,-99.99,,,-99.99,,2013-08-07 05:11:00,
2013-08-06 22:32:00,59.0,55.0,30.03,West,278,0.0,-999.0,86,-99.99,,,-99.99,,2013-08-07 05:32:00,
2013-08-06 22:43:00,59.0,55.0,30.03,West,278,0.0,-999.0,86,-99.99,,,-99.99,,2013-08-07 05:43:00,
2013-08-06 22:52:00,59.0,55.0,30.03,West,278,0.0,-999.0,86,-99.99,,,-99.99,,2013-08-07 05:52:00,
2013-08-06 23:02:00,58.0,54.0,30.04,West,278,0.0,-999.0,86,-99.99,,,-99.99,,2013-08-07 06:02:00,
2013-08-06 23:11:00,58.0,54.0,30.05,West,278,0.0,-999.0,87,-99.99,,,-99.99,,2013-08-07 06:11:00,
2013-08-06 23:32:00,58.0,54.0,30.05,West,277,0.0,-999.0,87,-99.99,,,-99.99,,2013-08-07 06:32:00,
2013-08-06 23:43:00,57.0,53.0,30.05,West,277,0.0,-999.0,88,-99.99,,,-99.99,,2013-08-07 06:43:00,
2013-08-06 23:52:00,57.0,53.0,30.05,West,277,0.0,-999.0,88,-99.99,,,-99.99,,2013-08-07 06:52:00,